Historyczne dane pomiarowe

Dodano dane terminowe – wersja testowa.

Dane z okresu 1951-2019

Wersja bazy: 1.34 [2019-03-16, lista zmian], aktualizacja planowana na 2019-04-15

Dane meteo z obszaru Polski uzyskane na podstawie danych udostępnionych przez Instytut Meteorologii i Gospodarki Wodnej – Państwowy Instytut Badawczy.

 

Wybierz Datę:    

       

TemperaturaWilgotnośćWiatrCiśnienieOpadyŚniegCzas trwania zjawisk
 Stacja t tx tn tng RH VA  wxwx mslp ppp RRR   cm mm wxwxwxwxwxwxwx
2019-07-25 20.8 25.4 14.0 11.9 69.8- 2.0 1.3---- 0.0------------
2019-07-24 18.2 21.3 15.4 15.4 89.3- 7.0 2.0---- 0.2------------
2019-07-23 16.7 21.1 14.8 14.8 96.0- 8.0 2.7---- 7.1------------
2019-07-22 19.5 24.6 13.7 12.6 71.5- 7.3 2.7---- 0.7------------
2019-07-21 20.7 28.7 16.0 15.6 82.3- 7.3 2.7---- 35.4------------
2019-07-20 20.8 26.2 16.2 15.0 63.3- 6.7 1.7---- 0.1------------
2019-07-19 19.4 25.5 13.3 10.3 57.8- 7.0 2.0---- 0.1------------
2019-07-18 17.1 21.9 10.8 8.1 56.3- 4.3 1.7---- 0.0------------
2019-07-17 15.5 19.7 10.0 9.6 60.8- 6.7 4.0---- 0.0------------
2019-07-16 15.6 20.7 10.9 7.4 68.3- 4.7 4.3---- 0.0------------
2019-07-15 15.8 20.7 9.3 8.2 58.5- 3.3 2.3---- 0.0------------
2019-07-14 14.2 17.6 11.4 8.1 91.8- 6.7 2.0---- 4.5------------
2019-07-13 16.3 19.9 13.5 12.9 78.8- 7.3 1.7---- 22.4------------
2019-07-12 17.1 23.1 9.6 5.4 51.0- 6.0 1.7---- 0.0------------
2019-07-11 13.4 17.0 9.0 7.6 82.0- 5.3 2.0---- 3.5------------
2019-07-10 14.0 18.3 11.4 11.2 63.8- 6.3 4.3---- 0.4------------
2019-07-09 13.6 18.4 7.7 5.8 54.8- 5.3 3.3---- 0.0------------
2019-07-08 14.1 18.2 10.6 10.1 55.0- 6.0 4.3---- 0.0------------
2019-07-07 18.9 24.7 15.5 15.3 63.3- 5.0 4.3---- 0.0------------
2019-07-06 21.2 27.4 15.4 15.2 51.8- 6.0 2.3---- 0.0------------
2019-07-05 17.6 22.2 12.0 8.4 54.3- 7.3 3.0---- 0.0------------
2019-07-04 16.3 21.3 9.5 6.5 45.8- 1.0 3.0---- 0.0------------
2019-07-03 17.2 22.5 11.8 10.4 51.3- 2.0 4.3---- 0.0------------
2019-07-02 21.5 25.2 18.1 17.9 62.8- 3.3 3.3---- 0.0------------
2019-07-01 26.8 35.0 21.9 17.3 46.0- 3.7 5.3---- 2.1------------
2019-06-30 25.4 33.3 16.2 12.3 42.3- 0.0 3.0---- 0.0------------
2019-06-29 19.1 24.1 12.9 12.9 41.5- 4.3 3.0---- 0.0------------
2019-06-28 17.0 22.5 13.0 12.9 66.0- 6.3 3.7---- 0.0------------
2019-06-27 24.9 30.2 22.0 21.3 53.8- 1.3 5.3---- 0.0------------
2019-06-26 27.6 33.2 21.2 17.7 58.5- 3.7 2.0---- 0.0------------
2019-06-25 23.0 28.8 15.3 14.4 68.5- 1.3 3.0---- 0.0------------
2019-06-24 19.8 23.2 15.7 16.1 72.0- 7.0 2.7---- 0.0------------
2019-06-23 19.2 22.0 15.9 17.3 74.0- 7.3 4.0---- 0.0------------
2019-06-22 19.2 22.2 14.8 14.8 81.8- 7.3 2.3---- 0.8------------
2019-06-21 20.0 25.1 15.9 16.3 82.3- 7.0 1.0---- 1.0------------
2019-06-20 19.9 24.9 15.8 15.7 81.0- 7.3 1.3---- 16.2------------
2019-06-19 20.5 27.8 14.8 14.6 77.5- 5.3 2.3---- 5.4------------
2019-06-18 18.0 21.7 11.5 10.7 73.0- 6.7 2.7---- 0.0------------
2019-06-17 17.1 19.7 14.8 15.3 80.0- 6.0 2.7---- 0.0------------
2019-06-16 21.7 27.9 17.8 16.8 68.0- 3.7 1.7---- 3.3------------
2019-06-15 25.7 32.3 18.2 17.6 63.3- 3.3 2.0---- 0.0------------
2019-06-14 23.7 28.3 17.6 17.0 73.8- 6.0 2.7---- 0.0------------
2019-06-13 25.9 31.7 19.2 15.9 53.8- 2.3 4.0---- 0.0------------
2019-06-12 24.6 30.4 17.9 16.5 48.5- 2.3 3.7---- 0.0------------
2019-06-11 24.0 29.3 17.3 15.0 55.0- 2.0 4.0---- 0.0------------
2019-06-10 21.9 28.4 14.7 14.4 65.8- 2.0 3.7---- 0.0------------
2019-06-09 18.7 23.1 13.4 12.0 64.8- 3.3 2.3---- 0.0------------
2019-06-08 20.9 27.0 14.9 13.9 67.8- 4.3 2.7---- 0.0------------
2019-06-07 20.1 24.2 15.0 13.8 72.5- 5.3 2.0---- 0.0------------
2019-06-06 18.2 22.8 12.7 12.2 68.3- 3.3 4.0---- 0.0------------
2019-06-05 19.2 24.7 13.1 11.8 72.5- 3.7 2.7---- 0.3------------
2019-06-04 20.2 25.2 13.7 12.6 62.0- 4.7 3.3---- 0.0------------
2019-06-03 19.1 24.2 12.3 10.2 65.3- 3.3 2.7---- 0.0------------
2019-06-02 18.5 23.3 12.4 11.6 71.5- 3.0 2.0---- 0.0------------
2019-06-01 16.4 21.4 9.9 7.8 74.8- 4.7 1.3---- 1.8------------
2019-05-31 13.1 18.2 6.5 7.5 79.3- 5.0 1.0---- 0.0------------
2019-05-30 8.0 9.4 6.0 7.0 97.0- 8.0 2.3---- 15.3------------
2019-05-29 12.0 17.1 9.2 9.6 95.8- 8.0 3.0---- 4.7------------
2019-05-28 16.6 20.7 12.2 11.5 76.0- 7.3 4.0---- 0.4------------
2019-05-27 17.7 23.2 12.0 9.2 67.3- 6.0 3.7---- 1.8------------
102.3 ms

 

Źródłem pochodzenia danych jest Instytut Meteorologii i Gospodarki Wodnej – Państwowy Instytut Badawczy. Dane Instytutu Meteorologii i Gospodarki Wodnej – Państwowego Instytutu Badawczego zostały przetworzone.

Dane źródłowe można odnaleźć na stronie https://dane.imgw.pl